Date,TemperatureHighF,TemperatureAvgF,TemperatureLowF,DewpointHighF,DewpointAvgF,DewpointLowF,HumidityHigh,HumidityAvg,HumidityLow,PressureMaxIn,PressureMinIn,WindSpeedMaxMPH,WindSpeedAvgMPH,GustSpeedMaxMPH,PrecipitationSumIn
2013-8-1,91.0,78.1,64.2,70.4,65.4,56.9,94,68,32,29.99,29.91,29,9,29,0.00
2013-8-2,92.0,81.6,71.9,71.2,64.7,56.8,85,59,32,29.99,29.92,32,15,32,0.00
2013-8-3,87.3,77.2,66.9,71.3,67.8,63.3,91,74,51,30.09,29.96,16,6,16,0.00
2013-8-4,87.1,78.4,68.5,72.2,68.8,64.4,95,75,48,30.10,29.99,24,6,24,0.00
2013-8-5,92.0,80.1,65.5,70.5,65.3,59.4,96,65,35,30.03,29.89,30,8,30,0.00
2013-8-6,86.8,78.8,68.3,73.9,70.6,65.7,94,77,56,29.99,29.80,26,8,26,0.00
2013-8-7,83.7,75.5,71.3,72.8,69.0,66.0,97,81,60,29.86,29.73,17,4,17,0.00
2013-8-8,80.5,71.8,61.2,68.5,58.1,52.1,93,65,39,30.10,29.83,34,12,35,0.05
2013-8-9,81.8,70.8,62.7,60.8,58.3,55.7,89,67,43,30.14,30.09,24,6,24,0.00
2013-8-10,85.3,74.7,69.3,63.6,58.6,56.0,81,58,38,30.13,30.06,29,13,29,0.00
2013-8-11,89.8,78.4,65.8,64.9,59.0,51.4,80,54,28,30.08,29.97,15,6,16,0.00
2013-8-12,85.4,75.6,65.2,71.8,63.5,56.2,92,68,37,30.02,29.91,16,5,16,0.00
2013-8-13,88.5,76.8,68.1,69.4,65.0,61.4,92,69,43,30.03,29.93,20,7,20,0.00
2013-8-14,89.3,72.9,64.2,65.6,61.6,49.8,91,72,27,30.03,30.00,15,4,15,0.00
2013-8-15,81.8,76.5,67.1,62.9,58.7,54.1,80,55,41,30.07,30.02,18,6,18,0.00
2013-8-16,84.8,75.0,62.9,71.7,67.4,58.6,91,78,63,30.06,29.97,20,6,20,0.00
2013-8-17,86.2,74.9,68.1,70.6,65.7,58.3,96,75,44,30.07,29.98,16,6,16,0.04
2013-8-18,86.3,75.6,62.9,72.6,66.8,60.6,93,76,53,30.03,29.97,24,7,24,0.00
2013-8-19,85.3,75.3,66.8,71.0,66.6,52.1,95,76,45,30.13,29.99,28,5,28,0.06
2013-8-20,85.4,75.8,68.5,57.0,53.7,49.6,59,47,33,30.14,30.05,31,13,31,0.00
2013-8-21,81.2,71.9,59.9,64.8,57.9,49.8,93,64,38,30.10,30.01,20,4,20,0.00
2013-8-22,84.9,72.5,59.7,69.5,64.5,53.7,96,78,37,30.07,29.89,27,7,29,0.00
2013-8-23,83.9,76.5,67.8,71.0,68.5,66.1,95,77,59,29.98,29.89,16,6,16,0.00
2013-8-24,83.2,71.3,63.1,70.8,66.4,61.6,97,86,61,29.99,29.91,22,3,22,0.73
2013-8-25,75.8,69.6,64.9,65.6,60.5,54.8,97,73,55,29.95,29.84,18,7,18,0.00
2013-8-26,74.7,67.8,62.4,64.2,62.2,59.4,96,83,62,29.90,29.85,10,3,10,0.00
2013-8-27,80.7,68.9,63.9,65.7,61.9,57.6,90,80,49,29.97,29.87,15,4,15,0.01
2013-8-28,81.3,71.0,64.7,63.7,61.7,56.1,92,75,43,30.02,29.95,15,5,15,0.00
2013-8-29,79.5,71.0,62.7,63.9,60.2,53.6,93,70,41,30.08,30.01,20,5,20,0.00
2013-8-30,81.9,72.1,58.1,58.4,54.1,49.9,87,56,35,30.10,30.02,21,9,21,0.00
2013-8-31,84.3,75.4,61.9,57.3,51.6,47.5,73,45,29,30.13,30.05,26,12,26,0.00